(413201) = 2003 AB79

Discovered at Kitt Peak on 2003-01-10 by Spacewatch.

Orbit

Orbit type: Main Belt

Note: WebGL enabled browser required.

epoch2024-03-31.0
epoch JD2460400.5
perihelion date2023-05-05.32864
perihelion JD2460069.82864
argument of perihelion (°)192.40036
ascending node (°)239.40859
inclination (°)2.15810
eccentricity0.0666066
perihelion distance (AU)2.4178595
Tisserand w.r.t. Jupiter3.4
ΔV w.r.t. Earth (km/sec)9.7
semimajor axis (AU)2.5903970
mean anomaly (°)78.17195
mean daily motion (°/day)0.23640380
aphelion distance (AU)2.763
period (years)4.17
P-vector [x]0.31231763
P-vector [y]0.87477259
P-vector [z]0.37044650
Q-vector [x]-0.94942452
Q-vector [y]0.30073174
Q-vector [z]0.09029678
absolute magnitude17.32
phase slope0.15
uncertainty0
referenceMPEC 2024-E73
observations used281
oppositions13
arc length (days)8202
first opposition used2001
last opposition used2024
residual rms (arc-secs)0.68
perturbers coarse indicatorM-v
perturbers precise indicator003Ek
first observation date used2001-09-20.0
last observation date used2024-03-05.0
computer nameMPCLINUX
Minimum Orbit Intersection Distances (in AU)
for orbit epoch: 2460400.5, reference: E2024-E73
Mercury2.11017
Venus1.69693
Earth1.43274
Mars0.84228
Jupiter2.4063
Saturn6.61339
Uranus15.831
Neptune27.3557

Observations

287 total observations over interval: 2001 09 20.25442 – 2024 03 05.200690
These data are available for download (format description).

Date (UT) J2000 RA J2000 Dec Magn Location Ref
2001 09 20.25442 23 48 21.75 +02 10 57.7 19.6   704 – Lincoln Laboratory ETS, New Mexico MPS 123329
2001 09 20.26857 23 48 20.96 +02 10 51.6 20.0   704 – Lincoln Laboratory ETS, New Mexico MPS 123329
2001 09 20.28272 23 48 20.31 +02 10 47.3 19.9   704 – Lincoln Laboratory ETS, New Mexico MPS 123329
2001 09 20.29686 23 48 19.48 +02 10 42.8 19.7   704 – Lincoln Laboratory ETS, New Mexico MPS 123329
2001 09 20.31101 23 48 18.76 +02 10 37.3 19.9   704 – Lincoln Laboratory ETS, New Mexico MPS 123329
2001 10 14.277800 23 30 23.647 -00 06 35.84 21.00 V 645 – Apache Point-Sloan Digital Sky Survey MPS 121165
2001 10 14.281272 23 30 23.528 -00 06 36.86 21.87   645 – Apache Point-Sloan Digital Sky Survey MPS 121165
2001 10 15.290520 23 29 50.180 -00 11 27.36 21.04 V 645 – Apache Point-Sloan Digital Sky Survey MPS 121165
2001 10 15.293992 23 29 50.061 -00 11 28.44 21.94   645 – Apache Point-Sloan Digital Sky Survey MPS 121165
2003 01 10.39494 08 59 18.76 +13 51 12.4 21.4 V 291 – LPL/Spacewatch II MPS 71852
2003 01 10.41899 08 59 17.60 +13 51 15.5 21.7 V 291 – LPL/Spacewatch II MPS 71852
2003 01 10.44339 08 59 16.43 +13 51 18.9 22.0 V 291 – LPL/Spacewatch II MPS 71852
2003 01 13.26072 08 57 02.30 +13 57 56.2 21.6 V 291 – LPL/Spacewatch II MPS 71852
2003 01 13.27199 08 57 01.72 +13 57 58.5 21.3 V 291 – LPL/Spacewatch II MPS 71852
2003 01 13.28484 08 57 01.07 +13 58 00.3 21.3 V 291 – LPL/Spacewatch II MPS 71852
2003 01 13.35474 08 56 57.46 +13 58 10.6 21.3 V 291 – LPL/Spacewatch II MPS 71852
2003 01 13.36702 08 56 56.85 +13 58 12.5 21.3 V 291 – LPL/Spacewatch II MPS 71852
2003 01 13.38258 08 56 56.03 +13 58 14.9 21.3 V 291 – LPL/Spacewatch II MPS 71852
2003 02 04.16317 08 36 33.50 +15 07 32.3 21.4 V 291 – LPL/Spacewatch II MPS 82901
2003 02 04.16768 08 36 33.25 +15 07 33.0 21.2 V 291 – LPL/Spacewatch II MPS 82901
2003 02 04.17212 08 36 32.98 +15 07 34.1 21.2 V 291 – LPL/Spacewatch II MPS 82901
2004 05 11.41217 15 44 12.05 -20 02 48.1 21.2 R 568 – Maunakea MPS 123329
2004 05 11.51207 15 44 06.33 -20 02 25.8   568 – Maunakea MPS 123329
2006 12 13.36823 07 36 57.95 +19 19 38.0 21.0 V 691 – Steward Observatory, Kitt Peak-Spacewatch MPS 192108
2006 12 13.38561 07 36 57.23 +19 19 38.1 20.9 V 691 – Steward Observatory, Kitt Peak-Spacewatch MPS 192108
2006 12 13.40300 07 36 56.54 +19 19 38.3 20.9 V 691 – Steward Observatory, Kitt Peak-Spacewatch MPS 192108
2006 12 26.20200 07 26 54.83 +19 26 32.4 21.8 R H07 – 7300 Observatory, Cloudcroft MPS 192108
2006 12 26.20749 07 26 54.50 +19 26 34.1 21.5 R H07 – 7300 Observatory, Cloudcroft MPS 192108
2006 12 26.21289 07 26 54.25 +19 26 35.8 22.7 R H07 – 7300 Observatory, Cloudcroft MPS 192108
2006 12 26.21884 07 26 53.99 +19 26 34.0 21.6 R H07 – 7300 Observatory, Cloudcroft MPS 192108
2006 12 26.22432 07 26 53.53 +19 26 33.6 21.4 R H07 – 7300 Observatory, Cloudcroft MPS 192108
2006 12 26.22977 07 26 53.33 +19 26 34.1 21.1 R H07 – 7300 Observatory, Cloudcroft MPS 192108
2006 12 27.25522 07 25 56.13 +19 27 30.2 18.9 V G96 – Mt. Lemmon Survey MPS 192108
2006 12 27.26233 07 25 55.70 +19 27 28.1 20.5 V G96 – Mt. Lemmon Survey MPS 192108
2006 12 27.26931 07 25 55.34 +19 27 28.5 20.4 V G96 – Mt. Lemmon Survey MPS 192108
2006 12 27.27936 07 25 54.73 +19 27 29.0 20.4 V G96 – Mt. Lemmon Survey MPS 192108
2007 01 09.33559 07 12 50.29 +19 41 38.7 20.0 V G96 – Mt. Lemmon Survey MPS 195490
2007 01 09.34337 07 12 49.82 +19 41 39.4 20.1 V G96 – Mt. Lemmon Survey MPS 195490
2007 01 09.35005 07 12 49.39 +19 41 39.6 19.9 V G96 – Mt. Lemmon Survey MPS 195490
2007 01 09.35701 07 12 48.92 +19 41 40.4 19.8 V G96 – Mt. Lemmon Survey MPS 195490
2012 03 30.38160 13 34 27.40 -12 09 28.9 21.1 V G96 – Mt. Lemmon Survey MPS 418433
2012 03 30.38747 13 34 27.01 -12 09 25.3 19.6 V G96 – Mt. Lemmon Survey MPS 418433
2012 03 30.39330 13 34 26.90 -12 09 24.7 19.7 V G96 – Mt. Lemmon Survey MPS 418433
2012 03 30.39913 13 34 26.47 -12 09 23.5 21.6 V G96 – Mt. Lemmon Survey MPS 418433
2013 07 01.48290 20 32 11.415 -15 59 40.11 20.9 r F51 – Pan-STARRS 1, Haleakala MPS 471332
2013 07 01.49319 20 32 10.983 -15 59 40.90 21.1 r F51 – Pan-STARRS 1, Haleakala MPS 471332
2013 07 01.50516 20 32 10.467 -15 59 42.19 21.0 i F51 – Pan-STARRS 1, Haleakala MPS 471332
2013 07 01.51692 20 32 09.975 -15 59 43.06 20.9 i F51 – Pan-STARRS 1, Haleakala MPS 471332
2014 10 20.41289 04 23 02.78 +22 01 14.0 20.9 V 691 – Steward Observatory, Kitt Peak-Spacewatch MPS 540468
2014 10 20.43075 04 23 02.41 +22 01 11.7 20.8 V 691 – Steward Observatory, Kitt Peak-Spacewatch MPS 540468
2014 10 20.44854 04 23 02.02 +22 01 10.8 21.0 V 691 – Steward Observatory, Kitt Peak-Spacewatch MPS 540468
2014 10 21.45398 04 22 41.03 +21 59 33.6 20.4 V G96 – Mt. Lemmon Survey MPS 540468
2014 10 21.46196 04 22 40.85 +21 59 32.8 20.5 V G96 – Mt. Lemmon Survey MPS 540468
2014 10 21.47438 04 22 40.55 +21 59 31.6 20.6 V G96 – Mt. Lemmon Survey MPS 540468
2014 10 26.60716 04 20 23.932 +21 49 56.15 20.7 w F51 – Pan-STARRS 1, Haleakala MPS 542204
2014 10 26.61558 04 20 23.644 +21 49 55.06 20.8 w F51 – Pan-STARRS 1, Haleakala MPS 542204
2014 10 26.62395 04 20 23.356 +21 49 54.07 20.7 w F51 – Pan-STARRS 1, Haleakala MPS 542204
2014 10 26.63239 04 20 23.087 +21 49 52.76 20.7 w F51 – Pan-STARRS 1, Haleakala MPS 542204
2014 11 12.54613 04 07 56.954 +21 02 29.55 20.3 i F51 – Pan-STARRS 1, Haleakala MPS 545639
2014 11 12.55886 04 07 56.228 +21 02 26.91 20.2 i F51 – Pan-STARRS 1, Haleakala MPS 545639
2014 11 12.57161 04 07 55.512 +21 02 24.12 20.1 i F51 – Pan-STARRS 1, Haleakala MPS 545639
2014 11 12.58434 04 07 54.770 +21 02 21.19 20.3 i F51 – Pan-STARRS 1, Haleakala MPS 545639
2014 11 17.34425 04 03 26.960 +20 45 17.46 20.2 w F51 – Pan-STARRS 1, Haleakala MPS 547617
2014 11 17.35719 04 03 26.188 +20 45 14.66 20.2 w F51 – Pan-STARRS 1, Haleakala MPS 547617
2014 11 17.37005 04 03 25.407 +20 45 11.89 20.2 w F51 – Pan-STARRS 1, Haleakala MPS 547617
2014 11 19.35726 04 01 29.432 +20 37 43.26 20.1 w F51 – Pan-STARRS 1, Haleakala MPS 547617
2014 11 19.37012 04 01 28.649 +20 37 40.45 20.0 w F51 – Pan-STARRS 1, Haleakala MPS 547617
2014 11 19.38292 04 01 27.858 +20 37 37.60 20.0 w F51 – Pan-STARRS 1, Haleakala MPS 547617
2014 11 19.39575 04 01 27.070 +20 37 34.67 20.1 w F51 – Pan-STARRS 1, Haleakala MPS 547617
2014 11 22.36748 03 58 31.00 +20 26 04.6 19.4 V G96 – Mt. Lemmon Survey MPS 549611
2014 11 22.37358 03 58 30.59 +20 26 03.6 19.6 V G96 – Mt. Lemmon Survey MPS 549611
2014 11 22.37968 03 58 30.23 +20 26 02.0 19.6 V G96 – Mt. Lemmon Survey MPS 549611
2014 11 28.20879 03 52 45.77 +20 02 57.0 20.2 V 691 – Steward Observatory, Kitt Peak-Spacewatch MPS 551535
2014 11 28.22918 03 52 44.52 +20 02 52.5 20.2 V 691 – Steward Observatory, Kitt Peak-Spacewatch MPS 551535
2014 11 28.24959 03 52 43.31 +20 02 47.5 20.1 V 691 – Steward Observatory, Kitt Peak-Spacewatch MPS 551535
2014 11 28.48302 03 52 29.436 +20 01 52.75 20.2 w F51 – Pan-STARRS 1, Haleakala MPS 551535
2014 11 28.49628 03 52 28.631 +20 01 49.52 20.2 w F51 – Pan-STARRS 1, Haleakala MPS 551535
2014 11 28.50955 03 52 27.834 +20 01 46.27 20.1 w F51 – Pan-STARRS 1, Haleakala MPS 551535
2014 11 28.52276 03 52 27.033 +20 01 42.93 20.1 w F51 – Pan-STARRS 1, Haleakala MPS 551535
2014 12 10.13334 03 42 01.51 +19 17 08.8 20.7 V 691 – Steward Observatory, Kitt Peak-Spacewatch MPS 553039
2014 12 10.21836 03 41 57.28 +19 16 50.2 21.0 V 691 – Steward Observatory, Kitt Peak-Spacewatch MPS 553039
2014 12 10.30358 03 41 52.96 +19 16 33.0 20.5 V 691 – Steward Observatory, Kitt Peak-Spacewatch MPS 553039
2016 01 08.62389 12 32 17.605 -06 01 41.52 21.9 w F51 – Pan-STARRS 1, Haleakala MPS 668283
2016 01 08.63231 12 32 17.934 -06 01 44.19 22.1 w F51 – Pan-STARRS 1, Haleakala MPS 668283
2016 01 08.64076 12 32 18.253 -06 01 46.48 21.9 w F51 – Pan-STARRS 1, Haleakala MPS 668283
2016 01 08.64921 12 32 18.564 -06 01 49.26 22.1 w F51 – Pan-STARRS 1, Haleakala MPS 668283
2016 03 01.48327 12 34 53.820 -06 50 58.65 21.0 r F51 – Pan-STARRS 1, Haleakala MPS 689996
2016 03 01.49838 12 34 53.247 -06 50 55.47 20.8 r F51 – Pan-STARRS 1, Haleakala MPS 689996
2016 03 01.51402 12 34 52.638 -06 50 52.28 21.0 r F51 – Pan-STARRS 1, Haleakala MPS 689996
2016 03 10.41014 12 28 49.686 -06 13 31.25 21.0 w F51 – Pan-STARRS 1, Haleakala MPS 692486
2016 03 10.42244 12 28 49.099 -06 13 27.77 21.0 w F51 – Pan-STARRS 1, Haleakala MPS 692486
2016 03 10.43467 12 28 48.532 -06 13 24.23 20.9 w F51 – Pan-STARRS 1, Haleakala MPS 692486
2016 03 10.44689 12 28 47.946 -06 13 20.66 20.8 w F51 – Pan-STARRS 1, Haleakala MPS 692486
